�������l�o���
Date,Time,MP-1(��Sv/h),MP-2(��Sv/h),MP-3(��Sv/h),MP-4(��Sv/h),MP-5(��Sv/h),MP-6(��Sv/h),MP-7(��Sv/h),MP-8(��Sv/h),����,����(m/s),���J
2018/09/22,00:00,0.758,1.110,0.799,1.395,0.988,0.454,0.782,0.744,�k�k��,5.3,�L
2018/09/22,00:10,0.756,1.108,0.796,1.392,0.985,0.454,0.783,0.744,�k�k��,4.3,�L
2018/09/22,00:20,0.755,1.107,0.797,1.392,0.985,0.454,0.783,0.743,�k�k��,3.9,�L
2018/09/22,00:30,0.758,1.110,0.799,1.391,0.988,0.454,0.786,0.744,�k��,4.1,�L
2018/09/22,00:40,0.757,1.107,0.796,1.391,0.984,0.455,0.782,0.745,�k�k��,5.5,�L
2018/09/22,00:50,0.758,1.107,0.799,1.391,0.985,0.454,0.784,0.744,�k�k��,6.5,�L
2018/09/22,01:00,0.758,1.110,0.800,1.392,0.987,0.454,0.785,0.745,�k�k��,5.2,�L
2018/09/22,01:10,0.758,1.109,0.799,1.395,0.986,0.454,0.785,0.744,�k�k��,6.3,�L
2018/09/22,01:20,0.757,1.108,0.795,1.392,0.981,0.455,0.783,0.742,�k��,9.4,�L
2018/09/22,01:30,0.755,1.110,0.798,1.390,0.982,0.453,0.783,0.742,�k��,8.4,�L
2018/09/22,01:40,0.758,1.110,0.798,1.393,0.984,0.454,0.784,0.745,�k�k��,9.7,�L
2018/09/22,01:50,0.759,1.112,0.801,1.395,0.985,0.453,0.783,0.743,�k�k��,10.2,�L
2018/09/22,02:00,0.758,1.110,0.798,1.394,0.986,0.453,0.785,0.744,�k�k��,10.9,�L
2018/09/22,02:10,0.758,1.109,0.797,1.394,0.982,0.454,0.784,0.744,�k�k��,9.7,�L
2018/09/22,02:20,0.759,1.109,0.798,1.396,0.984,0.452,0.784,0.746,�k,8.9,�L
2018/09/22,02:30,0.759,1.115,0.797,1.392,0.984,0.453,0.785,0.745,�k,7.9,�L
2018/09/22,02:40,0.758,1.111,0.797,1.397,0.986,0.453,0.786,0.746,�k,8.6,�L
2018/09/22,02:50,0.757,1.114,0.796,1.392,0.983,0.452,0.784,0.744,�k�k��,9.1,�L
2018/09/22,03:00,0.756,1.108,0.794,1.389,0.979,0.450,0.782,0.742,�k�k��,8.5,�L
2018/09/22,03:10,0.750,1.099,0.790,1.384,0.977,0.449,0.781,0.742,�k�k��,9.0,�L
2018/09/22,03:20,0.749,1.099,0.791,1.381,0.973,0.449,0.779,0.740,�k,6.6,�L
2018/09/22,03:30,0.752,1.100,0.790,1.388,0.975,0.449,0.781,0.743,�k,6.9,�L
2018/09/22,03:40,0.752,1.102,0.791,1.387,0.975,0.447,0.780,0.744,�k�k��,7.4,�L
2018/09/22,03:50,0.752,1.101,0.792,1.387,0.977,0.449,0.781,0.743,�k�k��,8.4,�L
2018/09/22,04:00,0.752,1.103,0.792,1.390,0.977,0.449,0.779,0.745,�k�k��,7.0,�L
2018/09/22,04:10,0.753,1.105,0.791,1.391,0.978,0.448,0.782,0.743,�k�k��,7.4,�L
2018/09/22,04:20,0.752,1.104,0.792,1.391,0.978,0.449,0.783,0.744,�k��,7.9,�L
2018/09/22,04:30,0.755,1.109,0.791,1.394,0.979,0.449,0.782,0.744,�k�k��,8.2,�L
2018/09/22,04:40,0.753,1.107,0.792,1.395,0.978,0.450,0.783,0.743,�k��,9.2,�L
2018/09/22,04:50,0.754,1.110,0.792,1.396,0.979,0.448,0.783,0.745,�k��,9.0,�L
2018/09/22,05:00,0.755,1.111,0.794,1.399,0.980,0.450,0.783,0.745,�k��,9.4,�L
2018/09/22,05:10,0.756,1.113,0.793,1.401,0.982,0.450,0.784,0.745,�k��,10.6,�L
2018/09/22,05:20,0.756,1.113,0.794,1.400,0.984,0.450,0.785,0.746,�k��,8.3,�L
2018/09/22,05:30,0.755,1.116,0.795,1.402,0.982,0.451,0.784,0.746,�k��,7.8,��
2018/09/22,05:40,0.757,1.114,0.796,1.407,0.984,0.449,0.785,0.748,�k��,7.8,��
2018/09/22,05:50,0.758,1.117,0.794,1.405,0.983,0.451,0.783,0.746,�k��,8.5,��
2018/09/22,06:00,0.757,1.117,0.795,1.408,0.985,0.449,0.786,0.746,�k��,8.2,�L
2018/09/22,06:10,0.759,1.119,0.796,1.410,0.989,0.452,0.786,0.747,�k��,7.8,�L
2018/09/22,06:20,0.759,1.120,0.797,1.411,0.990,0.452,0.785,0.749,�k��,9.8,��
2018/09/22,06:30,0.757,1.121,0.798,1.410,0.990,0.451,0.787,0.749,�k��,9.2,��
2018/09/22,06:40,0.759,1.123,0.797,1.412,0.990,0.452,0.788,0.747,�k��,9.8,�L
2018/09/22,06:50,0.757,1.122,0.799,1.412,0.993,0.452,0.789,0.748,�k��,7.7,�L
2018/09/22,07:00,0.759,1.124,0.796,1.413,0.992,0.450,0.788,0.749,�k��,7.7,�L
2018/09/22,07:10,0.759,1.121,0.797,1.414,0.991,0.451,0.788,0.749,�k��,8.1,�L
2018/09/22,07:20,0.760,1.124,0.800,1.414,0.993,0.453,0.789,0.748,�k��,8.2,�L
2018/09/22,07:30,0.760,1.122,0.799,1.413,0.992,0.451,0.788,0.751,�k�k��,7.3,�L
2018/09/22,07:40,0.761,1.126,0.799,1.414,0.993,0.452,0.790,0.750,�k�k��,6.2,�L
2018/09/22,07:50,0.761,1.123,0.800,1.417,0.995,0.452,0.790,0.751,�k��,6.3,�L
2018/09/22,08:00,0.761,1.127,0.800,1.416,0.995,0.452,0.788,0.751,�k�k��,6.4,��
2018/09/22,08:10,0.761,1.127,0.799,1.418,0.997,0.452,0.788,0.749,�k��,7.4,��
2018/09/22,08:20,0.761,1.126,0.799,1.422,0.996,0.454,0.790,0.751,�k��,6.4,��
2018/09/22,08:30,0.761,1.129,0.799,1.419,0.997,0.451,0.790,0.751,�k��,6.9,�L
2018/09/22,08:40,0.762,1.129,0.799,1.420,0.994,0.451,0.791,0.750,�k��,5.4,�L
2018/09/22,08:50,0.762,1.127,0.800,1.422,0.997,0.453,0.793,0.751,�k��,4.9,�L
2018/09/22,09:00,0.763,1.128,0.799,1.421,0.998,0.454,0.792,0.749,���k��,3.9,�L
2018/09/22,09:10,0.763,1.125,0.801,1.421,0.997,0.453,0.793,0.752,�k��,4.0,�L
2018/09/22,09:20,0.762,1.130,0.802,1.422,0.998,0.453,0.791,0.750,���k��,3.4,��
2018/09/22,09:30,0.765,1.132,0.802,1.424,1.002,0.455,0.791,0.751,���k��,3.9,�L
2018/09/22,09:40,0.767,1.130,0.803,1.423,1.002,0.455,0.794,0.752,�k��,4.3,�L
2018/09/22,09:50,0.766,1.133,0.805,1.425,1.003,0.455,0.792,0.751,���k��,4.0,�L
2018/09/22,10:00,0.768,1.134,0.807,1.428,1.004,0.457,0.793,0.752,���k��,4.2,�L
2018/09/22,10:10,0.767,1.135,0.806,1.426,1.003,0.458,0.792,0.754,���k��,2.8,�L
2018/09/22,10:20,0.767,1.134,0.807,1.427,1.003,0.456,0.794,0.752,�k��,3.0,��
2018/09/22,10:30,0.768,1.132,0.806,1.427,1.005,0.456,0.794,0.753,���k��,2.5,��
2018/09/22,10:40,0.766,1.136,0.806,1.426,1.005,0.454,0.796,0.752,�k��,3.2,��
2018/09/22,10:50,0.767,1.134,0.807,1.429,1.002,0.455,0.796,0.753,�k��,1.9,��
2018/09/22,11:00,0.769,1.136,0.808,1.428,1.005,0.453,0.794,0.752,�k�k��,2.9,��
2018/09/22,11:10,0.766,1.138,0.804,1.428,1.005,0.455,0.796,0.754,�k,3.4,��
2018/09/22,11:20,0.769,1.138,0.804,1.428,1.005,0.456,0.797,0.751,�k,3.7,��
2018/09/22,11:30,0.768,1.137,0.804,1.427,1.006,0.454,0.796,0.752,�k��,4.0,��
2018/09/22,11:40,0.768,1.137,0.807,1.429,1.007,0.456,0.795,0.753,�k�k��,3.6,��
2018/09/22,11:50,0.767,1.135,0.805,1.428,1.008,0.456,0.795,0.753,�k�k��,4.4,��
2018/09/22,12:00,0.769,1.138,0.805,1.430,1.009,0.455,0.797,0.755,�k�k��,4.1,��
2018/09/22,12:10,0.769,1.141,0.803,1.424,1.012,0.456,0.797,0.753,�k�k��,4.4,��
2018/09/22,12:20,0.768,1.139,0.803,1.428,1.011,0.455,0.795,0.754,�k��,4.9,��
2018/09/22,12:30,0.769,1.140,0.807,1.427,1.010,0.454,0.795,0.755,�k�k��,5.6,��
2018/09/22,12:40,0.769,1.139,0.806,1.428,1.010,0.454,0.797,0.752,�k�k��,5.4,��
2018/09/22,12:50,0.769,1.140,0.806,1.427,1.010,0.456,0.796,0.754,�k,4.3,��
2018/09/22,13:00,0.768,1.141,0.805,1.429,1.011,0.455,0.796,0.756,�k,3.6,�L
2018/09/22,13:10,0.768,1.139,0.806,1.430,1.013,0.457,0.796,0.754,�k,3.1,��
2018/09/22,13:20,0.769,1.140,0.805,1.434,1.012,0.454,0.796,0.754,�k,3.7,��
2018/09/22,13:30,0.767,1.140,0.805,1.430,1.012,0.456,0.797,0.756,�k�k��,4.5,��
2018/09/22,13:40,0.768,1.139,0.806,1.431,1.012,0.455,0.796,0.754,�k�k��,5.1,��
2018/09/22,13:50,0.770,1.139,0.806,1.433,1.013,0.454,0.796,0.755,�k�k��,4.5,��
2018/09/22,14:00,0.768,1.142,0.803,1.432,1.013,0.454,0.798,0.755,�k,4.4,��
2018/09/22,14:10,0.767,1.143,0.805,1.431,1.013,0.455,0.795,0.754,�k�k��,4.8,��
2018/09/22,14:20,0.770,1.141,0.806,1.432,1.013,0.456,0.796,0.754,�k�k��,6.2,��
2018/09/22,14:30,0.770,1.143,0.804,1.432,1.015,0.456,0.797,0.755,�k�k��,6.3,��
2018/09/22,14:40,0.769,1.143,0.805,1.433,1.015,0.456,0.797,0.754,�k�k��,6.0,��
2018/09/22,14:50,0.768,1.143,0.806,1.434,1.014,0.456,0.797,0.756,�k,5.0,��
2018/09/22,15:00,0.770,1.143,0.806,1.433,1.016,0.454,0.796,0.755,�k,5.9,��
2018/09/22,15:10,0.771,1.145,0.808,1.434,1.017,0.457,0.798,0.755,�k,5.3,��
2018/09/22,15:20,0.769,1.140,0.807,1.434,1.017,0.455,0.797,0.755,�k,5.2,��
2018/09/22,15:30,0.771,1.143,0.807,1.436,1.016,0.455,0.798,0.754,�k,5.7,��
2018/09/22,15:40,0.771,1.145,0.807,1.434,1.019,0.455,0.797,0.756,�k,4.9,��
2018/09/22,15:50,0.770,1.147,0.810,1.433,1.020,0.458,0.796,0.757,�k,4.0,��
2018/09/22,16:00,0.770,1.146,0.808,1.430,1.018,0.456,0.796,0.754,�k,3.3,��
2018/09/22,16:10,0.771,1.145,0.807,1.436,1.019,0.455,0.796,0.756,�k�k��,3.3,��
2018/09/22,16:20,0.769,1.146,0.809,1.435,1.019,0.457,0.797,0.757,�k�k��,2.3,��
2018/09/22,16:30,0.771,1.147,0.806,1.434,1.019,0.454,0.798,0.757,�k,3.1,��
2018/09/22,16:40,0.771,1.144,0.807,1.437,1.019,0.456,0.798,0.756,�k�k��,4.2,��
2018/09/22,16:50,0.769,1.149,0.808,1.435,1.017,0.455,0.798,0.757,�k,3.4,��
2018/09/22,17:00,0.770,1.149,0.807,1.437,1.019,0.456,0.798,0.757,�k�k��,2.9,��
2018/09/22,17:10,0.769,1.144,0.811,1.437,1.020,0.457,0.796,0.757,�k,3.4,��
2018/09/22,17:20,0.769,1.149,0.812,1.436,1.021,0.456,0.796,0.756,�k,2.9,��
2018/09/22,17:30,0.771,1.148,0.810,1.437,1.020,0.456,0.797,0.757,�k,3.0,��
2018/09/22,17:40,0.774,1.147,0.809,1.437,1.021,0.454,0.799,0.758,�k,2.8,��
2018/09/22,17:50,0.771,1.152,0.811,1.436,1.025,0.455,0.797,0.757,�k,2.6,��
2018/09/22,18:00,0.774,1.150,0.811,1.435,1.023,0.456,0.798,0.759,�k,2.6,��
2018/09/22,18:10,0.771,1.151,0.810,1.439,1.022,0.456,0.798,0.758,�k�k��,2.3,��
2018/09/22,18:20,0.774,1.149,0.811,1.437,1.024,0.457,0.798,0.758,�k,2.0,��
2018/09/22,18:30,0.772,1.150,0.811,1.438,1.022,0.458,0.797,0.759,�k,2.0,��
2018/09/22,18:40,0.771,1.151,0.810,1.439,1.025,0.456,0.798,0.757,�k,2.2,��
2018/09/22,18:50,0.773,1.152,0.812,1.436,1.025,0.457,0.797,0.757,�k,1.1,��
2018/09/22,19:00,0.775,1.151,0.813,1.437,1.024,0.457,0.800,0.759,�k,1.2,��
2018/09/22,19:10,0.772,1.150,0.812,1.437,1.025,0.458,0.799,0.758,�k,1.7,��
2018/09/22,19:20,0.772,1.149,0.811,1.436,1.025,0.455,0.799,0.757,�k�k��,1.1,��
2018/09/22,19:30,0.774,1.148,0.811,1.439,1.025,0.458,0.799,0.759,-,CALM,��
2018/09/22,19:40,0.772,1.149,0.811,1.438,1.026,0.456,0.799,0.758,�쐼,1.1,��
2018/09/22,19:50,0.772,1.149,0.811,1.440,1.026,0.457,0.797,0.759,��,0.8,��
2018/09/22,20:00,0.772,1.149,0.810,1.437,1.024,0.456,0.801,0.759,���k��,1.5,��
2018/09/22,20:10,0.772,1.150,0.812,1.439,1.024,0.456,0.799,0.758,-,CALM,��
2018/09/22,20:20,0.771,1.149,0.810,1.440,1.024,0.456,0.799,0.758,-,CALM,��
2018/09/22,20:30,0.773,1.149,0.810,1.438,1.025,0.455,0.799,0.759,-,CALM,��
2018/09/22,20:40,0.772,1.148,0.810,1.439,1.024,0.457,0.799,0.758,�쐼,0.8,��
2018/09/22,20:50,0.772,1.149,0.812,1.439,1.026,0.458,0.799,0.759,�k�k��,1.7,��
2018/09/22,21:00,0.770,1.150,0.811,1.438,1.025,0.456,0.799,0.756,�k�k��,2.3,��
2018/09/22,21:10,0.770,1.151,0.810,1.438,1.026,0.458,0.798,0.759,�k��,2.9,��
2018/09/22,21:20,0.772,1.150,0.811,1.440,1.025,0.455,0.798,0.759,�k�k��,2.8,��
2018/09/22,21:30,0.773,1.149,0.809,1.439,1.023,0.457,0.799,0.758,�k,1.5,��
2018/09/22,21:40,0.774,1.146,0.811,1.438,1.026,0.457,0.799,0.758,�k�k��,1.7,��
2018/09/22,21:50,0.772,1.148,0.810,1.439,1.024,0.457,0.801,0.760,�k�k��,4.3,��
2018/09/22,22:00,0.772,1.149,0.812,1.437,1.026,0.455,0.800,0.758,�k��,4.7,��
2018/09/22,22:10,0.773,1.147,0.810,1.439,1.027,0.457,0.800,0.759,�k�k��,3.4,��
2018/09/22,22:20,0.772,1.149,0.810,1.438,1.026,0.458,0.798,0.760,�k�k��,3.8,��
2018/09/22,22:30,0.770,1.148,0.811,1.437,1.025,0.459,0.798,0.759,�k�k��,5.2,��
2018/09/22,22:40,0.771,1.149,0.810,1.438,1.024,0.457,0.800,0.759,�k�k��,4.6,��
2018/09/22,22:50,0.770,1.149,0.810,1.438,1.027,0.458,0.799,0.757,�k�k��,5.4,��
2018/09/22,23:00,0.771,1.149,0.811,1.440,1.025,0.457,0.801,0.758,�k�k��,5.4,��
2018/09/22,23:10,0.770,1.149,0.809,1.440,1.026,0.457,0.800,0.759,�k�k��,5.1,��
2018/09/22,23:20,0.772,1.149,0.810,1.440,1.025,0.458,0.799,0.758,�k��,5.2,��
2018/09/22,23:30,0.768,1.151,0.811,1.436,1.027,0.456,0.799,0.757,�k��,6.2,��
2018/09/22,23:40,0.770,1.148,0.808,1.439,1.027,0.457,0.800,0.757,�k��,6.5,��
2018/09/22,23:50,0.772,1.149,0.811,1.439,1.026,0.457,0.798,0.759,�k��,6.5,��
